Date String (YYYY-MM-DD hh:mm:ss) UTC,Instrument flags,absolute air pressure of the measurement (hPa),sample flow rate (lpm),inlet stack bypass flow (lpm),air temperature of the measurement (°C),ambient temperature measured by the external sensor (°C),aerosol sample conditioner tube jacket temperature (°C),OPC LED temperature (°C),internal box temperature (°C),relative humidity of the measurement (%),span deviation,mass concentration of particles derived from Lorenz-Mie calculation of OPC scattering (μg/m³),mass concentration of particles derived from Lorenz-Mie calculation of OPC scattering (μg/m³),mass concentration of particles derived from Lorenz-Mie calculation of OPC scattering (μg/m³)
DateTimeUTC,F1_M11,P_M11,Q1_M11,Q2_M11,T1_M11,T2_M11,T3_M11,T4_M11,T5_M11,U1_M11,ZSPAN_M11,X0_M11,X2_M11,X1_M11
2024-04-14 19:00:00,SystemResetWarning,0826.8,5.00,000.00,025.0,024.5,000.0,032.9,026.9,012.5,0000.0,0016.65,0004.28,0002.96
2024-04-14 19:01:00,SystemResetWarning,0826.7,4.98,000.00,024.9,023.2,000.0,033.0,026.1,013.2,0000.0,0017.17,0004.31,0002.92
2024-04-14 19:02:00,SystemResetWarning,0826.6,5.02,000.00,024.5,021.7,000.0,033.0,025.2,011.9,0000.0,0015.92,0004.32,0002.91
2024-04-14 19:03:00,SystemResetWarning,0826.6,5.00,000.00,024.3,021.8,000.0,033.0,025.2,012.1,0000.0,0015.59,0004.26,0002.89
2024-04-14 19:04:00,SystemResetWarning,0826.7,5.00,000.00,024.3,022.2,000.0,032.9,025.4,012.1,0000.0,0013.99,0004.28,0002.89
2024-04-14 19:05:00,SystemResetWarning,0826.7,5.00,000.00,024.3,022.6,000.0,032.8,025.7,011.9,0000.0,0014.85,0004.28,0002.84
2024-04-14 19:06:00,SystemResetWarning,0826.6,4.99,000.00,024.4,022.9,000.0,032.7,026.0,011.3,0000.0,0015.40,0004.30,0002.83
2024-04-14 19:07:00,SystemResetWarning,0826.6,4.99,000.00,024.5,023.3,000.0,032.7,026.2,011.4,0000.0,0015.60,0004.30,0002.83
2024-04-14 19:08:00,SystemResetWarning,0826.6,5.00,000.00,024.5,023.6,000.0,032.7,026.3,011.7,0000.0,0016.52,0004.29,0002.85
2024-04-14 19:09:00,SystemResetWarning,0826.6,5.01,000.00,024.6,023.8,000.0,032.8,026.5,012.2,0000.0,0016.01,0004.31,0002.88
2024-04-14 19:10:00,SystemResetWarning,0826.6,5.00,000.00,024.7,024.1,000.0,032.8,026.6,011.9,0000.0,0015.06,0004.32,0002.89
2024-04-14 19:11:00,SystemResetWarning,0826.6,4.99,000.00,024.8,024.2,000.0,032.8,026.7,012.1,0000.0,0014.65,0004.31,0002.90
2024-04-14 19:12:00,SystemResetWarning,0826.6,4.99,000.00,024.9,024.5,000.0,032.8,026.8,011.7,0000.0,0014.24,0004.29,0002.91
2024-04-14 19:13:00,SystemResetWarning,0826.6,5.01,000.00,025.0,024.5,000.0,032.9,026.8,012.0,0000.0,0014.95,0004.26,0002.91
2024-04-14 19:14:00,SystemResetWarning,0826.5,4.99,000.00,024.8,022.9,000.0,033.0,025.9,012.5,0000.0,0014.52,0004.29,0002.89
2024-04-14 19:15:00,SystemResetWarning,0826.5,5.01,000.00,024.4,021.5,000.0,033.0,025.1,012.8,0000.0,0014.56,0004.22,0002.88
2024-04-14 19:16:00,SystemResetWarning,0826.4,5.02,000.00,024.3,021.9,000.0,033.0,025.2,012.0,0000.0,0013.83,0004.23,0002.91
2024-04-14 19:17:00,SystemResetWarning,0826.5,5.00,000.00,024.2,022.3,000.0,032.8,025.5,012.3,0000.0,0014.01,0004.25,0002.96
2024-04-14 19:18:00,SystemResetWarning,0826.4,4.99,000.00,024.3,022.6,000.0,032.7,025.7,012.5,0000.0,0014.24,0004.24,0002.99
2024-04-14 19:19:00,SystemResetWarning,0826.4,5.01,000.00,024.4,023.0,000.0,032.7,026.1,012.4,0000.0,0012.90,0004.23,0002.99
2024-04-14 19:20:00,SystemResetWarning,0826.4,5.01,000.00,024.5,023.3,000.0,032.7,026.3,012.2,0000.0,0014.20,0004.22,0003.01
2024-04-14 19:21:00,SystemResetWarning,0826.4,4.99,000.00,024.5,023.6,000.0,032.7,026.4,011.8,0000.0,0014.33,0004.16,0003.01
2024-04-14 19:22:00,SystemResetWarning,0826.4,4.99,000.00,024.6,023.9,000.0,032.7,026.6,011.6,0000.0,0014.85,0004.16,0003.02
2024-04-14 19:23:00,SystemResetWarning,0826.4,5.00,000.00,024.7,024.1,000.0,032.8,026.7,012.1,0000.0,0014.91,0004.19,0003.02
2024-04-14 19:24:00,SystemResetWarning,0826.4,5.00,000.00,024.8,024.3,000.0,032.8,026.8,011.5,0000.0,0014.12,0004.20,0003.03
2024-04-14 19:25:00,SystemResetWarning,0826.4,5.00,000.00,024.9,024.5,000.0,032.9,026.9,012.2,0000.0,0013.70,0004.15,0003.04
2024-04-14 19:26:00,SystemResetWarning,0826.4,4.99,000.00,025.0,024.2,000.0,032.9,026.7,012.6,0000.0,0013.41,0004.13,0003.03
2024-04-14 19:27:00,SystemResetWarning,0826.2,4.99,000.00,024.7,022.4,000.0,033.0,025.5,013.1,0000.0,0014.50,0004.12,0003.03
2024-04-14 19:28:00,SystemResetWarning,0826.2,5.01,000.00,024.3,021.5,000.0,033.0,025.0,013.4,0000.0,0014.32,0004.18,0003.02
2024-04-14 19:29:00,SystemResetWarning,0826.2,5.01,000.00,024.2,021.9,000.0,032.9,025.2,013.6,0000.0,0013.94,0004.21,0003.00
2024-04-14 19:30:00,SystemResetWarning,0826.1,5.00,000.00,024.2,022.3,000.0,032.8,025.5,012.8,0000.0,0014.13,0004.19,0003.01
2024-04-14 19:31:00,SystemResetWarning,0826.1,5.00,000.00,024.3,022.6,000.0,032.7,025.7,013.2,0000.0,0013.04,0004.26,0003.01
2024-04-14 19:32:00,SystemResetWarning,0826.2,5.00,000.00,024.3,023.0,000.0,032.7,026.0,013.2,0000.0,0014.13,0004.30,0003.02
2024-04-14 19:33:00,SystemResetWarning,0826.2,5.00,000.00,024.4,023.3,000.0,032.7,026.2,011.7,0000.0,0013.65,0004.31,0003.00
2024-04-14 19:34:00,SystemResetWarning,0826.2,5.00,000.00,024.5,023.6,000.0,032.7,026.4,011.9,0000.0,0013.50,0004.27,0003.00
2024-04-14 19:35:00,SystemResetWarning,0826.1,5.00,000.00,024.6,023.8,000.0,032.7,026.5,011.7,0000.0,0013.45,0004.26,0003.03
2024-04-14 19:36:00,SystemResetWarning,0826.1,5.00,000.00,024.7,024.1,000.0,032.7,026.6,011.6,0000.0,0013.78,0004.26,0003.02
2024-04-14 19:37:00,SystemResetWarning,0826.1,4.99,000.00,024.8,024.3,000.0,032.8,026.7,011.9,0000.0,0014.55,0004.31,0003.01
2024-04-14 19:38:00,SystemResetWarning,0826.0,5.00,000.00,024.9,024.5,000.0,032.8,026.8,012.2,0000.0,0013.29,0004.36,0003.02
2024-04-14 19:39:00,SystemResetWarning,0826.0,5.00,000.00,024.9,023.9,000.0,032.9,026.5,012.7,0000.0,0013.09,0004.28,0003.00
2024-04-14 19:40:00,SystemResetWarning,0825.9,5.01,000.00,024.6,022.0,000.0,033.0,025.3,013.6,0000.0,0014.24,0004.26,0002.99
2024-04-14 19:41:00,SystemResetWarning,0825.9,5.02,000.00,024.2,021.5,000.0,033.0,025.0,012.9,0000.0,0015.25,0004.23,0002.98
2024-04-14 19:42:00,SystemResetWarning,0825.9,4.99,000.00,024.2,022.0,000.0,032.9,025.2,012.9,0000.0,0015.46,0004.16,0002.98
2024-04-14 19:43:00,SystemResetWarning,0825.9,5.00,000.00,024.2,022.4,000.0,032.7,025.5,012.7,0000.0,0015.27,0004.16,0002.99
2024-04-14 19:44:00,SystemResetWarning,0825.9,5.00,000.00,024.3,022.7,000.0,032.7,025.8,012.8,0000.0,0015.56,0004.14,0003.02
2024-04-14 19:45:00,SystemResetWarning,0825.9,5.00,000.00,024.4,023.1,000.0,032.7,026.1,013.1,0000.0,0017.58,0004.14,0003.02
2024-04-14 19:46:00,SystemResetWarning,0825.9,5.00,000.00,024.4,023.4,000.0,032.6,026.3,013.5,0000.0,0017.78,0004.13,0003.02
2024-04-14 19:47:00,SystemResetWarning,0825.9,4.99,000.00,024.5,023.7,000.0,032.7,026.4,013.3,0000.0,0017.80,0004.16,0003.05
2024-04-14 19:48:00,SystemResetWarning,0825.9,4.99,000.00,024.6,024.0,000.0,032.7,026.6,012.1,0000.0,0017.70,0004.13,0003.07
2024-04-14 19:49:00,SystemResetWarning,0825.9,5.00,000.00,024.7,024.2,000.0,032.7,026.7,011.5,0000.0,0017.54,0004.10,0003.05
2024-04-14 19:50:00,SystemResetWarning,0825.9,5.00,000.00,024.8,024.3,000.0,032.8,026.8,011.7,0000.0,0017.76,0004.15,0003.07
2024-04-14 19:51:00,SystemResetWarning,0825.9,5.00,000.00,024.9,024.5,000.0,032.8,026.9,011.8,0000.0,0016.73,0004.17,0003.08
2024-04-14 19:52:00,SystemResetWarning,0825.9,4.99,000.00,024.9,023.5,000.0,032.9,026.3,011.5,0000.0,0015.66,0004.24,0003.09
2024-04-14 19:53:00,SystemResetWarning,0825.9,5.00,000.00,024.5,021.7,000.0,033.0,025.2,011.9,0000.0,0015.36,0004.24,0003.09
2024-04-14 19:54:00,SystemResetWarning,0825.9,5.02,000.00,024.2,021.5,000.0,032.9,025.0,012.6,0000.0,0014.65,0004.22,0003.07
2024-04-14 19:55:00,SystemResetWarning,0825.9,4.99,000.00,024.2,022.0,000.0,032.8,025.3,012.5,0000.0,0015.93,0004.27,0003.06
2024-04-14 19:56:00,SystemResetWarning,0825.9,4.99,000.00,024.2,022.4,000.0,032.7,025.6,012.7,0000.0,0014.01,0004.30,0003.07
2024-04-14 19:57:00,SystemResetWarning,0825.9,5.00,000.00,024.3,022.8,000.0,032.7,025.8,012.5,0000.0,0014.33,0004.33,0003.07
2024-04-14 19:58:00,SystemResetWarning,0825.9,5.01,000.00,024.4,023.1,000.0,032.7,026.1,012.9,0000.0,0014.66,0004.36,0003.07
2024-04-14 19:59:00,SystemResetWarning,0825.9,5.00,000.00,024.4,023.5,000.0,032.7,026.3,012.1,0000.0,0015.39,0004.42,0003.07
